Weather History for Cork, Ireland

Change the Weather History Date:

Saturday, February 2, 2013

  Actual Average Record
Temperature  
Mean Temperature 41 °F -  
Max Temperature 46 °F 46 °F 53 °F (2004)
Min Temperature 36 °F 37 °F 28 °F (2009)
Degree Days  
Heating Degree Days 24    
Moisture  
Dew Point 36 °F    
Average Humidity 84    
Maximum Humidity 100    
Minimum Humidity 66    
Precipitation  
Precipitation 0.01 in 0.15 in - ()
Sea Level Pressure  
Sea Level Pressure 30.20 in    
Wind  
Wind Speed 9 mph ()    
Max Wind Speed 16 mph    
Max Gust Speed -    
Visibility 6.7 miles    
Events Rain    
Averages and records for this station are not official NWS values.
T = Trace of Precipitation, MM = Missing Value Source: Averaged Metar Reports

Daily Weather History Graph

Daily Weather History Graph

Search for Another Location

Airport:

Trip Planner

Search our weather history database for the weather conditions in past years. The results will help you decide how hot, cold, wet, or windy it might be!

Date:

Astronomy

Feb. 02, 2013 Rise Set
Actual Time 8:11 AM GMT 5:24 PM GMT
Civil Twilight 7:35 AM GMT 6:00 PM GMT
Nautical Twilight 6:54 AM GMT 6:41 PM GMT
Astronomical Twilight 6:15 AM GMT 7:20 PM GMT
Moon 12:07 AM GMT (2/2) 10:18 AM GMT (2/2)
Length of Visible Light 10h 25m
Length of Day
9h 12m
Waning Gibbous, 62% of the Moon is Illuminated
Feb 2
Waning Gibbous
Feb 3
Last Quarter
Feb 10
New
Feb 17
First Quarter
Feb 25
Full

Hourly Weather History & Observations

Time (GMT) Temp. Windchill Dew Point Humidity Pressure Visibility Wind Dir Wind Speed Gust Speed Precip Events Conditions
12:00 AM 40 °F - 38 °F 88% 29.99 in 19 mi NW 11.2 mph - -   Partly Cloudy
12:00 AM 41.0 °F 34.3 °F 37.4 °F 87% 29.95 in 6.2 mi NW 11.5 mph - N/A   Partly Cloudy
12:30 AM 41.0 °F 32.8 °F 37.4 °F 87% 29.98 in 6.2 mi NW 16.1 mph - N/A   Partly Cloudy
1:00 AM 39.2 °F 30.8 °F 37.4 °F 93% 29.98 in 6.2 mi NW 15.0 mph - N/A   Partly Cloudy
1:30 AM 39.2 °F 31.2 °F 35.6 °F 87% 29.98 in 6.2 mi NW 13.8 mph - N/A   Partly Cloudy
2:00 AM 39.2 °F 30.8 °F 37.4 °F 93% 30.01 in 6.2 mi NW 15.0 mph - N/A   Partly Cloudy
2:30 AM 39.2 °F 31.6 °F 35.6 °F 87% 30.04 in 6.2 mi WNW 12.7 mph - N/A   Partly Cloudy
3:00 AM 39.2 °F 30.8 °F 35.6 °F 87% 30.04 in 6.2 mi NW 15.0 mph - N/A   Partly Cloudy
3:30 AM 39.2 °F 31.6 °F 35.6 °F 87% 30.06 in 6.2 mi NW 12.7 mph - N/A   Partly Cloudy
4:00 AM 39.2 °F - 35.6 °F 87% 30.06 in - North - - N/A   Scattered Clouds
5:00 AM 37.4 °F 30.8 °F 35.6 °F 93% 30.09 in 6.2 mi WNW 9.2 mph - N/A   Partly Cloudy
5:30 AM 37.4 °F 31.4 °F 35.6 °F 93% 30.12 in 6.2 mi West 8.1 mph - N/A   Partly Cloudy
6:00 AM 37 °F - 35 °F 87% 30.16 in 19 mi WNW 6.7 mph - -   Scattered Clouds
6:00 AM 37.4 °F 32.1 °F 33.8 °F 87% 30.12 in 6.2 mi WNW 6.9 mph - N/A   Partly Cloudy
6:30 AM 37.4 °F 31.4 °F 33.8 °F 87% 30.12 in 6.2 mi West 8.1 mph - N/A   Partly Cloudy
7:00 AM 37.4 °F 30.8 °F 35.6 °F 93% 30.15 in 6.2 mi WNW 9.2 mph - N/A   Partly Cloudy
7:30 AM 37.4 °F 30.8 °F 35.6 °F 93% 30.15 in 6.2 mi WNW 9.2 mph - N/A   Partly Cloudy
8:00 AM 37.4 °F 30.3 °F 33.8 °F 87% 30.18 in 6.2 mi WNW 10.4 mph - N/A   Partly Cloudy
8:30 AM 37.4 °F 31.4 °F 33.8 °F 87% 30.18 in 6.2 mi WNW 8.1 mph - N/A   Partly Cloudy
9:00 AM 37.4 °F 30.3 °F 33.8 °F 87% 30.21 in 6.2 mi NW 10.4 mph - N/A   Partly Cloudy
9:30 AM 37.4 °F 30.3 °F 33.8 °F 87% 30.21 in 6.2 mi NW 10.4 mph - N/A   Partly Cloudy
10:00 AM 39.2 °F 33.0 °F 35.6 °F 87% 30.24 in 6.2 mi NNW 9.2 mph - N/A   Partly Cloudy
10:30 AM 39.2 °F 33.6 °F 35.6 °F 87% 30.24 in 6.2 mi NNW 8.1 mph - N/A   Partly Cloudy
11:00 AM 41.0 °F 37.1 °F 35.6 °F 81% 30.27 in 6.2 mi NW 5.8 mph - N/A   Partly Cloudy
11:30 AM 41.0 °F 36.4 °F 37.4 °F 87% 30.27 in 6.2 mi WNW 6.9 mph - N/A   Partly Cloudy
12:00 PM 43 °F - 38 °F 74% 30.31 in 22 mi West 8.9 mph - -   Scattered Clouds
12:00 PM 42.8 °F 37.5 °F 37.4 °F 81% 30.27 in 6.2 mi West 9.2 mph - N/A   Partly Cloudy
12:30 PM 44.6 °F 39.2 °F 37.4 °F 76% 30.27 in 6.2 mi WNW 10.4 mph - N/A   Partly Cloudy
1:00 PM 44.6 °F 40.2 °F 37.4 °F 76% 30.27 in 6.2 mi WNW 8.1 mph - N/A   Mostly Cloudy
1:30 PM 46.4 °F 41.9 °F 37.4 °F 71% 30.27 in 6.2 mi NW 9.2 mph - N/A   Mostly Cloudy
2:00 PM 46.4 °F 41.9 °F 35.6 °F 66% 30.27 in 6.2 mi NW 9.2 mph - N/A   Scattered Clouds
2:30 PM 46.4 °F 41.5 °F 35.6 °F 66% 30.27 in 6.2 mi WNW 10.4 mph - N/A   Scattered Clouds
3:00 PM 46.4 °F 41.1 °F 37.4 °F 71% 30.30 in 6.2 mi WNW 11.5 mph - N/A   Partly Cloudy
3:30 PM 46.4 °F 42.4 °F 35.6 °F 66% 30.30 in 6.2 mi WNW 8.1 mph - N/A   Partly Cloudy
4:00 PM 44.6 °F 40.7 °F 35.6 °F 71% 30.30 in 6.2 mi WNW 6.9 mph - N/A   Partly Cloudy
4:30 PM 44.6 °F 42.2 °F 37.4 °F 76% 30.30 in 6.2 mi West 4.6 mph - N/A   Scattered Clouds
5:00 PM 44.6 °F 42.2 °F 35.6 °F 71% 30.30 in 6.2 mi WNW 4.6 mph - N/A   Partly Cloudy
5:30 PM 42.8 °F 39.3 °F 35.6 °F 76% 30.30 in 6.2 mi West 5.8 mph - N/A   Partly Cloudy
6:00 PM 42 °F - 36 °F 74% 30.33 in 25 mi West 4.5 mph - -   Scattered Clouds
6:00 PM 42.8 °F 40.1 °F 37.4 °F 81% 30.30 in 6.2 mi West 4.6 mph - N/A   Scattered Clouds
6:30 PM 41.0 °F 39.0 °F 35.6 °F 81% 30.30 in 6.2 mi West 3.5 mph - N/A   Scattered Clouds
7:00 PM 41.0 °F 38.0 °F 37.4 °F 87% 30.30 in 6.2 mi SW 4.6 mph - N/A   Mostly Cloudy
7:30 PM 41.0 °F 37.1 °F 35.6 °F 81% 30.30 in 6.2 mi WSW 5.8 mph - N/A   Mostly Cloudy
8:00 PM 41.0 °F 37.1 °F 35.6 °F 81% 30.30 in 6.2 mi SSW 5.8 mph - N/A   Mostly Cloudy
8:30 PM 39.2 °F 35.0 °F 35.6 °F 87% 30.30 in 6.2 mi SW 5.8 mph - N/A   Mostly Cloudy
9:00 PM 39.2 °F 34.2 °F 35.6 °F 87% 30.27 in 6.2 mi SW 6.9 mph - N/A   Mostly Cloudy
9:30 PM 41.0 °F 35.8 °F 37.4 °F 87% 30.27 in 6.2 mi WSW 8.1 mph - N/A   Mostly Cloudy
10:00 PM 41.0 °F 36.4 °F 37.4 °F 87% 30.27 in 6.2 mi SW 6.9 mph - N/A   Mostly Cloudy
10:30 PM 41.0 °F 35.2 °F 37.4 °F 87% 30.27 in 6.2 mi SW 9.2 mph - N/A   Overcast
11:00 PM 41.0 °F 35.8 °F 39.2 °F 93% 30.27 in 6.2 mi SW 8.1 mph - N/A Rain Light Rain
11:30 PM 41.0 °F 35.2 °F 41.0 °F 100% 30.24 in 6.2 mi SW 9.2 mph - N/A Rain Light Rain